Tracking 33407 objects as of 5-Mar-2026
HD Live streaming from Space Station
objects crossing your sky now

PEGASUS R/B

Track PEGASUS R/B now!
10-day predictions


NORAD ID: 23548
Int'l Code: 1995-017D
Perigee: 713.4 km
Apogee: 732.3 km
Inclination: 70.0 °
Period: 99.1 minutes
Semi major axis: 7093 km
RCS: 1.5717 m2 (large)
Launch date: April 3, 1995
Source: United States (US)
Launch site: AIR FORCE WESTERN TEST RANGE (AFWTR)

Note: This is a ROCKET BODY
Your satellite tracking list
Your tracking list is empty




NASA's NSSDC Master Catalog

Two Line Element Set (TLE):
1 23548U 95017D   26064.24567339  .00000704  00000-0  18552-3 0  9996
2 23548  69.9876  49.8636 0013352 261.8192 193.0481 14.53043822635550
Source of the keplerian elements: AFSPC